sat.trackr.live / text

‹ back to catalog

STARLINK-11650 [DTC]

NORAD 63312 · 2025-057F

PAYLOAD ACTIVE UNKNOWN

§ Identity

Operator
Country
US
Launch date
2025-03-18
Launch site
AFETR
Launch vehicle
Mass (kg)
RCS (m²)

Purposes: comms

External: N2YO · Heavens-Above · Gunter

§ Orbital elements

Epoch: 2026-05-25T02:32:57.013152Z

Period
91.67 min
Inclination
43.0021°
Eccentricity
0.0003462
Mean motion
15.70859498 rev/d
Perigee alt
354.1 km
Apogee alt
358.8 km
Semi-major
6,734.6 km
B*
1.7443e-3
RAAN
164.1222°
Arg perigee
277.6960°
Mean anomaly
82.3514°
Rev number
6,922

§ Raw data

STARLINK-11650 [DTC]1 63312U 25057F   26145.10621543  .00229890  00000+0  17443-2 0  99942 63312  43.0021 164.1222 0003462 277.6960  82.3514 15.70859498 69225

JSON: /api/v1/satellites/63312 · /tle

For live sub-satellite position, see the globe view (requires WebGL).

§ Visibility from observer

Set your observer location to see the next 7 days of passes ≥ 10°. The values pass through the URL so the page stays shareable.

No JS? Fill the form by hand. The geolocation button needs JavaScript.